Location: Arran
(51.9410°N, 101.7372°W)
Time: 10:48:47
(UTC+00:00)

Oscar 19 - Pass Details

Date: 06 December 2023
Orbit: 771 x 789 km, 98.9° (Epoch: 01 March)

Event Time Altitude Azimuth Distance (km) Brightness Sun altitude
Rises 13:06:09 0° 8° (N) 3,273 13.8 -13.4°
Reaches altitude 10° 13:08:47 10° 356° (N) 2,344 12.9 -13.0°
Maximum altitude 13:12:58 26° 302° (WNW) 1,516 11.6 -12.4°
Drops below altitude 10° 13:17:10 10° 248° (WSW) 2,342 12.7 -11.8°
Sets 13:19:48 0° 236° (SW) 3,269 13.5 -11.4°
